Location: Newark
(46.7000°N, 60.6000°W)
Time: 04:24:52
(UTC+00:00)

A-11 Canister half - Pass Details

Date: 31 October 2020
Orbit: 1525 x 1683 km, 47.3° (Epoch: 23 November)

Event Time Altitude Azimuth Distance (km) Brightness Sun altitude
Rises 15:03:29 0° 176° (S) 4,835 12.8 28.2°
Reaches altitude 10° 15:08:29 10° 155° (SSE) 3,820 12.6 28.3°
Maximum altitude 15:13:18 15° 125° (SE) 3,406 11.6 28.5°
Drops below altitude 10° 15:18:02 10° 94° (E) 3,766 11.3 28.6°
Sets 15:22:51 0° 74° (ENE) 4,726 11.5 28.7°
